STARLINK-34573

Last updated on Sat Jul 19 2025 00:02:08 GMT+0000 (Coordinated Universal Time)

1 64676U 25139N 25199.58335648 .00039219 00000+0 70945-3 0 9998 2 64676 53.1594 138.1457 0001455 108.7032 90.5300 15.49317932 4389
UTC large
Height (km)
Speed (km/s)
/
Latitude / Longitude
Inclination (degrees)
Orbital Period (minutes)
Azimuth
Elevation
Range (km)
Doppler Factor

Next 0 passes for location: London (51.5072 / 0.1276)

Sorry there are no passes over London.